STARLINK-11596, 64321

Orbit data source: Space-Track

STARLINK-11596, 64321 is a payload satellite owned by SpaceX/Seattle (US) in LEO that was launched on Tue, 10 Jun 2025 UTC via an FALCON 9 launch vehicle from the Air Force Eastern Test Range (AFETR). Payload-class satellites include a variety of spacecraft equipped with specific instruments for various scientific and technological missions. These include communications satellites like Starlink; space stations such as the ISS; scientific satellites like the Hubble; Earth observation satellites from companies like Planet Labs, Umbra, and HawkEye 360; GPS; miniature CubeSats for education and research; and military/defense satellites.

Loading next visibility...
Identifier
64321, 2025-124E
Orbit
LEO
Country
Flag of USUS
Related business
Manufacturer
SpaceX/Seattle
Mission
Operational Commercial Communications
Bus & Motor
STARLINK V2M, Unknown motor
Mass
730 kg wet, ~700 kg dry
Launch date (UTC)
2025-06-10 (3 months ago)
Launch vehicle
FALCON 9
Launch site
Air Force Eastern Test Range (AFETR)
Object type
Payload
Rocket body
Debris
Shape & HBR
Box + 2 Pan, 14.5 m
Radar Cross Section
36.964 m², Large (>1 m²)

Expand to show TLE details & history
Last TLE update: 6 hours ago

TLE from 6 hours ago
0 STARLINK-11596
1 64321U 25124E   25242.88747917  .00242302  00000-0  18282-2 0  9992
2 64321  42.9982  99.5355 0002989 251.6579 108.3964 15.70956891 12826
Epoch: 2025-08-30T21:17Z
TLE epoch observation values (Epoch: 2025-08-30T21:17:58.2Z)
Latitude
0.00001°
Longitude
160.72769°
Altitude
356.568 km
Speed
7.697 km/s
True Right ascension
06h 38m 08s
True Declination
0° 00' 00"
Sunlit
Object was in daylight at epoch
Visualization orbit readout
Latitude
Unknown
Longitude
Unknown
Altitude
Unknown
Speed
Unknown
Apparent Right ascension
Unknown
Apparent Declination
Unknown
Sunlit
N/A
Visualization observer readout
Local Sidereal Time
19:11:35
Azimuth
Unknown
Elevation
Unknown
Doppler factor
Unknown
Orbital elements
Apogee altitude
360.156 km
Perigee altitude
356.13 km
Semi-major axis
6,736.28 km
Eccentricity
0.0003
Inclination
42.9982°
RAAN
99.5355°
Arg. of periapsis
251.6579°
True anomaly
108.4289°
Mean anomaly
108.3964°
Eccentric anomaly
108.41265°
Mean motion
3.92566 °/min
Orbital period
91.7 mins
BSTAR
0.0018282
Loading maneuver chart data...
Computing Atmospheric mass density...
Loading historical data...
Loading historical data...
Loading historical data...
Loading historical data...
Loading historical data...
Loading historical data...
Loading historical data...

Documentation

Showing up to 5 results
|